Regional Weather Roundup
Issued by NWS

Home | Current Version | Previous Version | Graphics & Text | Print | Product List | Glossary On
Versions: 1 2 3 4 5 6 7 8 9 10 11 12 13 14 15 16 17 18 19 20 21 22 23 24 25 26 27 28 29 30 31 32 33 34 35 36 37 38 39 40 41 42 43 44 45
000
ASUS45 KBOU 220507
RWRCO

WEATHER ROUNDUP FOR COLORADO
NATIONAL WEATHER SERVICE DENVER/BOULDER CO
1100 PM MDT TUE OCT 21 2014

NOTE: "FAIR" INDICATES FEW OR NO CLOUDS BELOW 12000 FEET WITH NO
SIGNIFICANT WEATHER AND/OR OBSTRUCTIONS TO VISIBILITY.

COZ001>005-013-030-031-220600-
...NORTHWEST COLORADO...

CITY           SKY/WX    TMP DP  RH WIND       PRES   REMARKS
CRAIG          LGT RAIN  46  42  86 SE5       30.13F
HAYDEN         CLOUDY    43  39  87 SW5       30.16R
MEEKER         RAIN      48  40  73 MISG      30.15R
MOUNT WERNER   NOT AVBL
STEAMBOAT SPGS CLOUDY    43  39  86 W14       30.16R
WALDEN         CLOUDY    37  36  93 N13       30.13F
$$

COZ006>008-011-220600-
...WEST CENTRAL VALLEYS...

CITY           SKY/WX    TMP DP  RH WIND       PRES   REMARKS
GRAND JUNCTION CLOUDY    56  47  71 W6        30.01R
MONTROSE       CLEAR     48  42  80 SE8       30.07S
EAGLE          PTCLDY    46  39  76 NE3       30.11S
RIFLE          MOCLDY    50  45  83 CALM      30.04R
DELTA          CLEAR     56  43  62 NE9       30.04S
NUCLA          CLEAR     50  39  66 E9        30.11R
$$

COZ017>023-064>068-220600-
...SOUTHWEST COLORADO...

CITY           SKY/WX    TMP DP  RH WIND       PRES   REMARKS
DURANGO        PTCLDY    45  42  89 N7        30.14S
CORTEZ         PTCLDY    48  42  80 NE3       30.09S
PAGOSA SPRINGS MOCLDY    46  45  95 CALM      30.19F
TELLURIDE      PTCLDY    46  36  69 CALM      30.25S
WOLF CREEK PAS FOG       32  32 100 SW21G30     N/A  VSB 1/2 WCI  20
$$

COZ009-010-012-014-032>034-037-058>063-220600-
...CENTRAL COLORADO...

CITY           SKY/WX    TMP DP  RH WIND       PRES   REMARKS
ASPEN          MOCLDY    42  39  89 S3        30.16R
BUENA VISTA    MOCLDY    43  41  92 N3        30.17R
COPPER MTN     MOCLDY    37  30  75 SW13G21   30.32S
BERTHOUD PASS  FAIR      30  27  86 NW14G20   30.33S WCI  20
COTTONWOOD PAS MOCLDY    43  36  75 NE3       30.24R
GUNNISON       PTCLDY    43  36  75 N7        30.20S
KREMMLING      PTCLDY    43  34  70 CALM        N/A
LEADVILLE      MOCLDY    32  31  96 CALM      30.22S
SALIDA         CLOUDY    48  43  82 CALM      30.22S
SUNLIGHT       PTCLDY    36  34  93 CALM      30.27S
WILKERSON PASS NOT AVBL
$$

COZ069>075-220600-
...SAN LUIS VALLEY/SANGRE DE CRISTO MOUNTAINS...

CITY           SKY/WX    TMP DP  RH WIND       PRES   REMARKS
ALAMOSA        CLOUDY    48  39  71 S8        30.14R
LA VETA PASS   PTCLDY    39  34  81 S13G25    30.23F
SAGUACHE       CLOUDY    50  37  62 NW13      30.16S
$$

COZ035-036-038>040-220600-
...NORTHERN COLORADO FRONT RANGE...

CITY           SKY/WX    TMP DP  RH WIND       PRES   REMARKS
DENVER INTL AP CLOUDY    57  39  51 W8        29.96F
DMNS CITY PARK   N/A     56  40  54 E5        29.96S
AURORA         MOCLDY    56  38  50 NW1       29.99S
FRONT RANGE AP MOCLDY    54  41  62 W13       29.98S
ERIE MUNI ARPT CLOUDY    61  40  45 CALM      29.94S
BOULDER MUN AP MOCLDY    59  39  47 NW6       29.96S
CENTENNIAL     MOCLDY    55  40  56 CALM      29.99S
BROOMFIELD     NOT AVBL
FORT COLLINS   CLOUDY    63  39  42 W10       29.97S
LONGMONT       CLOUDY    58  47  67 W7        29.97R
$$

COZ041-046-047-076>085-087-088-220600-
...PIKES PEAK/PALMER DIVIDE AND SOUTHERN FOOTHILLS...

CITY           SKY/WX    TMP DP  RH WIND       PRES   REMARKS
COLO. SPRINGS  CLOUDY    51  42  71 N8        30.01S
A. F. ACADEMY  CLOUDY    52  37  55 VRB5      30.02S
ELLICOTT       CLOUDY    51  42  71 S7        29.99S
FALCON         CLOUDY    49  41  72 NW3       30.04S
FORT CARSON    MOCLDY    53  39  58 N10       29.98S
LIMON          PTCLDY    51  42  71 SE9       29.97S
MONUMENT HILL  CLOUDY    52  36  54 NW9       30.05R
TRINIDAD       CLEAR     57  44  62 CALM      30.02S
$$

COZ042>045-048>051-090-091-220600-
...NORTHEAST COLORADO...

CITY           SKY/WX    TMP DP  RH WIND       PRES   REMARKS
GREELEY ARPT   CLOUDY    57  43  58 N10       29.95R
AKRON          PTCLDY    58  44  60 S13       29.91F
BURLINGTON     CLEAR     60  44  55 S20       29.96S
WRAY           PTCLDY    63  45  51 S14G21    29.90F
STERLING       PTCLDY    59  45  58 SW6       29.89R
HOLYOKE        PTCLDY    59  43  55 S8        29.90S
FORT MORGAN    PTCLDY    57  38  50 S3        29.91S
$$

COZ086-089-092>099-220600-
...SOUTHEAST COLORADO...

CITY           SKY/WX    TMP DP  RH WIND       PRES   REMARKS
PUEBLO         MOCLDY    55  40  56 NW7       29.93R
LA JUNTA       CLEAR     64  47  53 S14G24    29.93F
LAMAR          CLEAR     62  48  60 S17       29.93S
SPRINGFIELD      N/A     54  48  80 S15       30.02R
$$



USA.gov is the U.S. government's official web portal to all federal, state and local government web resources and services.